Simultaneous Nadir Overpasses (SNOs) Predictions

Prediction of SNOs between METOP-C and LANDSAT-8 Satellite Orbit:

Table of predicted SNOs for the next 14.0 days since TLE Epoch: 8/6/2022
Index Date (METOP-C) Time (METOP-C) Lat,Lon (METOP-C) SZA (METOP-C ) Date (LANDSAT-8) Time (LANDSAT-8) Lat,Lon (LANDSAT-8) SZA (LANDSAT-8 ) Distance(km) Time Diff (sec)
1 08/06/2022 09:34:16 -81.18,-102.79 113.42 08/06/2022 09:35:27 -81.18,-102.87 113.40 1.51 71
2 08/06/2022 10:24:56 81.19, 64.91 66.64 08/06/2022 10:24:53 81.19, 64.89 66.64 0.49 3
3 08/09/2022 05:08:37 -81.17, -36.69 112.66 08/09/2022 05:09:43 -81.17, -36.60 112.62 1.65 66
4 08/09/2022 05:59:16 81.19, 131.41 67.45 08/09/2022 05:59:08 81.20, 131.51 67.46 1.78 8
5 08/12/2022 00:42:57 -81.18, 30.14 111.77 08/12/2022 00:43:59 -81.18, 29.99 111.76 2.46 62
6 08/12/2022 01:33:36 81.21,-161.73 68.34 08/12/2022 01:33:24 81.21,-161.93 68.32 3.32 12
7 08/14/2022 20:17:18 -81.18, 96.57 110.90 08/14/2022 20:18:15 -81.19, 96.53 110.88 0.71 57
8 08/14/2022 21:07:58 81.20, -95.66 69.17 08/14/2022 21:07:41 81.19, -95.79 69.14 2.34 17
9 08/17/2022 15:51:39 -81.18, 162.98 110.00 08/17/2022 15:52:31 -81.19, 163.01 109.98 0.78 52



Historial Predications of SNOs between METOP-C and LANDSAT-8
